Regional Weather Roundup
Issued by NWS State College, PA

Home | Current Version | Previous Version | Text Only | Print | Product List | Glossary Off
Versions: 1 2 3 4 5 6 7 8 9 10 11 12 13 14 15 16 17 18 19 20 21 22 23 24 25 26 27 28 29 30 31 32 33 34 35 36 37 38 39 40 41 42 43 44 45 46 47 48 49 50

000
ASUS41 KCTP 202110
RWRCTP

REGIONAL WEATHER ROUNDUP
NATIONAL WEATHER SERVICE STATE COLLEGE PA
500 PM EDT SAT SEP 20 2014

Note: "fair" indicates few or no clouds below 12,000 feet with no
significant weather and/or obstructions to visibility.

* = STATION THAT DOES NOT REPORT PRECIPITATION /E.G. RAIN...SNOW...ETC/
    THUNDER OR FOG.

PAZ002>004-007>009-013>016-020>023-029>032-202200-
WESTERN PENNSYLVANIA

CITY           SKY/WX    TMP DP  RH WIND       PRES   REMARKS
ERIE           SUNNY     79  59  50 S16G30    29.89F
MEADVILLE      MOSUNNY   74  60  61 S13G24    29.95F
FRANKLIN*      PTSUNNY   73  61  64 S17       30.00F
NEW CASTLE     NOT AVBL
BEAVER COUNTY  MOSUNNY   77  61  57 S8G20     30.00F
BUTLER*        MOSUNNY   77  61  57 S13G21    30.02F
PITTSBURGH INT PTSUNNY   77  60  55 S13       30.00F
PITTSBURGH     MOSUNNY   78  58  49 S8G18     30.01F
INDIANA*       MOSUNNY   79  61  53 SW13G21   30.06F
LATROBE        MOSUNNY   79  63  57 SW13G18   30.03F
WASHINGTON CO* MOSUNNY   77  61  57 SW8       30.02F
$$

PAZ004>006-010>012-017>019-024>028-033>037-041-042-045-046-049>053-202200-
CENTRAL PENNSYLVANIA

CITY           SKY/WX    TMP DP  RH WIND       PRES   REMARKS
BRADFORD       PTSUNNY   71  57  61 S10G18    30.03F
DUBOIS         MOSUNNY   74  60  61 SW8       30.03F
CLEARFIELD     MOSUNNY   74  59  59 S8G20     30.03F
JOHNSTOWN      MOSUNNY   75  54  47 SW15      30.07F
ALTOONA        MOSUNNY   77  57  50 S10       30.07F
STATE COLLEGE  MOSUNNY   73  59  60 S10       30.06F
WILLIAMSPORT   MOSUNNY   76  57  51 S13G21    30.03F
SELINSGROVE    SUNNY     78  58  49 S8        30.06F
FT INDIANTOWN  PTSUNNY   76  58  55 SE12      30.09F
CAPITAL CITY   MOSUNNY   79  57  46 S15       30.08F
HARRISBURG     PTSUNNY   78  58  49 S10G18    30.07F
YORK           MOSUNNY   77  58  51 SE13      30.10F
$$

PAZ038>040-043-044-047-048-054-055-060>062-067>071-202200-
EASTERN PENNSYLVANIA

CITY           SKY/WX    TMP DP  RH WIND       PRES   REMARKS
SCRANTON       CLOUDY    72  55  55 S12G20    30.09F
MOUNT POCONO   CLOUDY    69  55  60 SW10      30.15F
ALLENTOWN      PTSUNNY   76  56  49 S12       30.12F
QUAKERTOWN*    PTCLDY    75  57  53 S7        30.14F
READING        PTSUNNY   76  57  51 S15       30.09F
LANCASTER      MOSUNNY   77  56  48 S12       30.11F
COATESVILLE    PTCLDY    73  59  60 SE8       30.14F
POTTSTOWN      SUNNY     76  56  49 S8        30.14F
BLUE BELL      SUNNY     77  61  57 S8        30.12F
DOYLESTOWN     PTSUNNY   73  59  61 S10       30.13F
WILLOW GROVE   NOT AVBL
NORTH PHILA    PTSUNNY   77  57  50 SE12      30.15F
PHILADELPHIA   MOSUNNY   78  60  53 SE12      30.13F
$$


USA.gov is the U.S. government's official web portal to all federal, state and local government web resources and services.